| time (UTC) | temp F | wind direction | speed MPH | gust MPH | rain 1hr in | rain 24hr in | rain mn in | humidity % | barometer mb |
| 20260506084547 | 60 | 217 | 3.0 | 8.0 | 0.00 | 0.00 | 0.00 | 79 | 1009.4 |
| 20260506083100 | 60 | 238 | 3.0 | 9.0 | 0.00 | 0.00 | 0.00 | 79 | 1009.4 |
| 20260506081548 | 60 | 259 | 3.0 | 12.0 | 0.00 | 0.00 | 0.00 | 78 | 1009.4 |
| 20260506073038 | 61 | 191 | 3.0 | 12.0 | 0.00 | 0.00 | 0.00 | 76 | 1009.4 |
| 20260506071536 | 61 | 183 | 2.0 | 11.0 | 0.00 | 0.00 | 0.00 | 76 | 1009.3 |
| 20260506061535 | 63 | 229 | 2.0 | 13.0 | 0.00 | 0.00 | 0.00 | 72 | 1009.0 |
| 20260506044518 | 63 | 205 | 3.0 | 15.0 | 0.00 | 0.00 | 0.00 | 67 | 1009.5 |
| 20260506043014 | 64 | 199 | 4.0 | 10.0 | 0.00 | 0.00 | 0.00 | 67 | 1009.4 |
| 20260506041510 | 64 | 222 | 7.0 | 19.0 | 0.00 | 0.00 | 0.00 | 66 | 1009.4 |
| 20260506040008 | 64 | 188 | 2.0 | 20.0 | 0.00 | 0.00 | 0.00 | 66 | 1009.5 |
| 20260506034508 | 63 | 198 | 5.0 | 15.0 | 0.00 | 0.00 | 0.00 | 66 | 1009.3 |
| 20260506033014 | 64 | 191 | 3.0 | 15.0 | 0.00 | 0.00 | 0.00 | 65 | 1009.3 |
| 20260506031506 | 63 | 206 | 5.0 | 11.0 | 0.00 | 0.00 | 0.00 | 66 | 1009.2 |
| 20260506030005 | 63 | 220 | 2.0 | 9.0 | 0.00 | 0.00 | 0.00 | 65 | 1009.3 |
| 20260506024515 | 64 | 244 | 3.0 | 12.0 | 0.00 | 0.00 | 0.00 | 65 | 1009.3 |
| 20260506023004 | 64 | 197 | 3.0 | 13.0 | 0.00 | 0.00 | 0.00 | 65 | 1009.3 |
| 20260506021509 | 64 | 206 | 5.0 | 12.0 | 0.00 | 0.00 | 0.00 | 64 | 1009.1 |
| 20260506020004 | 64 | 189 | 5.0 | 13.0 | 0.00 | 0.00 | 0.00 | 63 | 1009.1 |
| 20260506014505 | 64 | 257 | 5.0 | 13.0 | 0.00 | 0.00 | 0.00 | 62 | 1009.2 |
| 20260506013001 | 65 | 198 | 4.0 | 17.0 | 0.00 | 0.00 | 0.00 | 61 | 1009.0 |
| 20260506011501 | 65 | 234 | 3.0 | 13.0 | 0.00 | 0.00 | 0.00 | 60 | 1008.8 |
| 20260506010100 | 66 | 205 | 6.0 | 15.0 | 0.00 | 0.00 | 0.00 | 59 | 1008.6 |
| 20260506004606 | 66 | 202 | 3.0 | 13.0 | 0.00 | 0.00 | 0.00 | 60 | 1008.6 |
| 20260506003058 | 66 | 212 | 8.0 | 16.0 | 0.00 | 0.00 | 0.00 | 59 | 1008.3 |
| 20260506001603 | 67 | 219 | 3.0 | 12.0 | 0.00 | 0.00 | 0.00 | 58 | 1008.1 |
| 20260506000120 | 67 | 238 | 5.0 | 15.0 | 0.00 | 0.00 | 0.00 | 57 | 1007.8 |
| 20260505234558 | 68 | 181 | 2.0 | 13.0 | 0.00 | 0.00 | 0.00 | 57 | 1007.5 |
| 20260505233059 | 68 | 201 | 4.0 | 12.0 | 0.00 | 0.00 | 0.00 | 57 | 1007.4 |
| 20260505231612 | 68 | 193 | 5.0 | 14.0 | 0.00 | 0.00 | 0.00 | 56 | 1007.2 |
| 20260505230107 | 70 | 259 | 6.0 | 14.0 | 0.00 | 0.00 | 0.00 | 54 | 1007.0 |
| 20260505224557 | 71 | 234 | 6.0 | 17.0 | 0.00 | 0.00 | 0.00 | 52 | 1006.8 |
| 20260505223053 | 72 | 198 | 4.0 | 17.0 | 0.00 | 0.00 | 0.00 | 50 | 1006.3 |
| 20260505221559 | 73 | 200 | 3.0 | 15.0 | 0.00 | 0.00 | 0.00 | 49 | 1006.2 |
| 20260505220052 | 73 | 253 | 4.0 | 14.0 | 0.00 | 0.00 | 0.00 | 50 | 1006.4 |
| 20260505214552 | 73 | 208 | 7.0 | 20.0 | 0.00 | 0.00 | 0.00 | 50 | 1006.3 |
| 20260505213052 | 74 | 217 | 4.0 | 14.0 | 0.00 | 0.00 | 0.00 | 49 | 1006.2 |
| 20260505211549 | 75 | 209 | 3.0 | 13.0 | 0.00 | 0.00 | 0.00 | 49 | 1006.1 |
| 20260505210048 | 76 | 206 | 5.0 | 13.0 | 0.00 | 0.00 | 0.00 | 47 | 1006.0 |
| 20260505204552 | 76 | 218 | 8.0 | 20.0 | 0.00 | 0.00 | 0.00 | 48 | 1005.9 |
| 20260505203055 | 77 | 228 | 8.0 | 17.0 | 0.00 | 0.00 | 0.00 | 46 | 1005.9 |
| 20260505201547 | 76 | 271 | 3.0 | 15.0 | 0.00 | 0.00 | 0.00 | 48 | 1005.9 |
| 20260505200046 | 77 | 217 | 6.0 | 16.0 | 0.00 | 0.00 | 0.00 | 48 | 1006.1 |
| 20260505194554 | 79 | 256 | 7.0 | 13.0 | 0.00 | 0.00 | 0.00 | 44 | 1006.1 |
| 20260505193040 | 80 | 205 | 4.0 | 19.0 | 0.00 | 0.00 | 0.00 | 42 | 1006.2 |
| 20260505191552 | 81 | 261 | 6.0 | 17.0 | 0.00 | 0.00 | 0.00 | 42 | 1006.2 |
| 20260505190040 | 81 | 271 | 5.0 | 13.0 | 0.00 | 0.00 | 0.00 | 41 | 1006.3 |
| 20260505184537 | 80 | 161 | 4.0 | 14.0 | 0.00 | 0.00 | 0.00 | 43 | 1006.4 |
| 20260505183034 | 79 | 196 | 5.0 | 16.0 | 0.00 | 0.00 | 0.00 | 43 | 1006.6 |
| 20260505181534 | 79 | 226 | 4.0 | 15.0 | 0.00 | 0.00 | 0.00 | 46 | 1006.9 |
| 20260505180038 | 79 | 205 | 2.0 | 11.0 | 0.00 | 0.00 | 0.00 | 47 | 1007.1 |
| 20260505174526 | 79 | 191 | 4.0 | 15.0 | 0.00 | 0.00 | 0.00 | 46 | 1007.4 |
| 20260505173027 | 80 | 229 | 6.0 | 17.0 | 0.00 | 0.00 | 0.00 | 45 | 1007.5 |
| 20260505171524 | 79 | 207 | 4.0 | 15.0 | 0.00 | 0.00 | 0.00 | 45 | 1007.5 |
| 20260505170022 | 80 | 221 | 3.0 | 15.0 | 0.00 | 0.00 | 0.00 | 43 | 1007.6 |
| 20260505164517 | 79 | 216 | 4.0 | 14.0 | 0.00 | 0.00 | 0.00 | 44 | 1007.9 |
| 20260505163016 | 79 | 198 | 3.0 | 10.0 | 0.00 | 0.00 | 0.00 | 43 | 1008.3 |
| 20260505161512 | 77 | 179 | 5.0 | 12.0 | 0.00 | 0.00 | 0.00 | 45 | 1008.5 |
| 20260505153002 | 74 | 254 | 4.0 | 9.0 | 0.00 | 0.00 | 0.00 | 50 | 1008.9 |
| 20260505151601 | 73 | 216 | 2.0 | 6.0 | 0.00 | 0.00 | 0.00 | 51 | 1009.0 |
| 20260505151502 | 73 | 205 | 2.0 | 6.0 | 0.00 | 0.00 | 0.00 | 51 | 1009.1 |
| 20260505150126 | 74 | 211 | 3.0 | 11.0 | 0.00 | 0.00 | 0.00 | 49 | 1009.1 |
| 20260505124545 | 63 | 277 | 4.0 | 12.0 | 0.00 | 0.00 | 0.00 | 67 | 1009.8 |
| 20260505123037 | 62 | 205 | 3.0 | 13.0 | 0.00 | 0.00 | 0.00 | 69 | 1009.5 |
| 20260505121554 | 61 | 238 | 3.0 | 8.0 | 0.00 | 0.00 | 0.00 | 71 | 1009.7 |
| 20260505120025 | 59 | 203 | 3.0 | 9.0 | 0.00 | 0.00 | 0.00 | 74 | 1009.7 |
| 20260505114522 | 57 | 250 | 4.0 | 8.0 | 0.00 | 0.00 | 0.00 | 76 | 1009.6 |
| 20260505113017 | 56 | 205 | 2.0 | 9.0 | 0.00 | 0.00 | 0.00 | 78 | 1009.6 |
| 20260505111514 | 54 | 243 | 3.0 | 10.0 | 0.00 | 0.00 | 0.00 | 80 | 1009.6 |
| 20260505101508 | 49 | 204 | 0.0 | 3.0 | 0.00 | 0.00 | 0.00 | 86 | 1009.5 |
| 20260505100139 | 49 | 227 | 0.0 | 2.0 | 0.00 | 0.00 | 0.00 | 86 | 1009.4 |
| 20260505094511 | 48 | 241 | 0.0 | 4.0 | 0.00 | 0.00 | 0.00 | 86 | 1009.3 |
| 20260505093004 | 48 | 212 | 0.0 | 2.0 | 0.00 | 0.00 | 0.00 | 85 | 1009.5 |
| 20260505091504 | 48 | 221 | 0.0 | 3.0 | 0.00 | 0.00 | 0.00 | 85 | 1009.6 |
| 20260505090104 | 48 | 239 | 0.0 | 3.0 | 0.00 | 0.00 | 0.00 | 85 | 1009.5 |